NUSAT-20 (GRACE) (48921 NORAD) Tracking and Keplerian Element Data

This shows tracking and keplerian element data for the satellite.

Feedback or suggestion? Click here.




ElementValue
Catalog48921
NameNUSAT-20 (GRACE)
Epoch Orbit1298
Epoch Day262.43497785
Epoch Year2021
RAAN30.1602
Inclination97.3985
Eccentricity0.0014802
Argument of Perigee319.9677
Mean Anonmoly124.0205
Mean Motion15.25734877
Decay Rate0.00014399
L11 48921U 21059AU 21262.43497785 .00014399 00000-0 56504-3 0 9990
L22 48921 97.3985 30.1602 0014802 319.9677 124.0205 15.25734877 12989

Live tracking and technical data element details for NUSAT-20 (GRACE) (NORAD 48921). NUSAT-20 (GRACE) can be tracked NOW for your location showing map with azimuth and elevation plus other details from your city location.

Track the satellite on the map from your city or location and see movement details for azimuth, elevation, latitude, longitude, range, height, and movement on the map or in text.







IsCatalogInMostPopularTable: catalog: 48921, numindb: 15
Update: records affected: 1



GetName: 48921 NUSAT-20 (GRACE)

Hit Count: updated at: Fri, 24 Sep 2021 17:28:33 GMT